Hourly Data Report for February 10, 2013

BAGOTVILLE A
QUEBEC

48°20'00.000" N
71°00'00.000" W
159.10 m
7060400
71727
YBG

Download Data

Hourly Data (February 2013)
Hourly Data Report for February 10, 2013
TIME
LST
Temp Definition
°C
Dew Point Definition
°C
Rel Hum Definition
%
Precip. Amount Definition
mm

Wind Dir Definition
10's deg

Wind Spd Definition
km/h
Visibility Definition
km
Stn Press Definition
kPa
Hmdx Definition


Wind Chill Definition


Weather Definition


00:00 -18.1 -22.3 70   27 13 24.1 100.83   -26 Clear
01:00 -18.0 -22.9 65   27 9 24.1 100.79   -24 Clear
02:00 -19.0 -24.2 63     0 24.1 100.82     Clear
03:00 -20.6 -25.5 65   28 9 24.1 100.81   -27 Clear
04:00 -21.8 -26.0 69     0 24.1 100.83     Clear
05:00 -23.4 -25.9 80     0 24.1 100.88     Clear
06:00 -25.4 -28.1 78     0 24.1 100.94     Mainly Clear
07:00 -24.6 -28.3 71     0 40.2 101.01     Mainly Clear
08:00 -23.6 -26.2 79   19 6 40.2 101.03   -29 Mainly Clear
09:00 -18.6 -22.9 69     0 40.2 101.03     Mainly Clear
10:00 -17.4 -22.1 67   9 4 40.2 101.02   -21 Mainly Clear
11:00 -15.0 -21.0 60   10 7 40.2 100.99   -20 Mainly Clear
12:00 -13.2 -19.1 61     0 40.2 100.86     Clear
13:00 -12.0 -17.4 64   36 4 40.2 100.79   -15 Clear
14:00 -10.0 -13.7 74     0 40.2 100.73     Clear
15:00 -8.6 -18.8 43     0 40.2 100.66     Clear
16:00 -8.0 -18.3 43     0 40.2 100.60     Clear
17:00 -10.5 -15.4 67   21 6 40.2 100.58   -14 Clear
18:00 -12.5 -17.5 66   22 9 24.1 100.61   -18 Clear
19:00 -12.7 -18.4 62   21 7 24.1 100.62   -17 Clear
20:00 -15.3 -19.4 71   20 6 24.1 100.63   -20 Clear
21:00 -15.0 -19.0 71   9 4 24.1 100.54   -18 Clear
22:00 -16.8 -20.6 72   19 6 24.1 100.50   -21 Clear
23:00 -16.8 -20.0 76   20 7 24.1 100.44   -22 Clear

Notes on Data Quality.

Legend

  • E = Estimated
  • M = Missing
  • NA = Not Available*
  • [empty] = Indicates an unobserved value
Date modified: